NOAA NWS Hourly Roundups by Site

Regional Weather Roundup for Bismarck, ND

To Select Another Site Choose from List

Select Site:  

000
ASUS43 KBIS 181702
RWRBIS

NWR BROADCAST TEXT
NATIONAL WEATHER SERVICE BISMARCK ND
1100 AM CST SAT JAN 18 2020

NOTE: "FAIR" INDICATES FEW OR NO CLOUDS BELOW 12,000 FEET WITH NO
SIGNIFICANT WEATHER AND/OR OBSTRUCTIONS TO VISIBILITY.


CITY           SKY/WX    TMP DP  RH WIND       PRES   REMARKS
WILLISTON      FAIR     -12 -20  67 W25G37    30.29R WCI -40
MINOT          SUNNY     -8 -16  67 W31G44    30.21R WCI -37
MINOT AFB      MOSUNNY   -8 -16  67 NW28G35   30.19R WCI -36
BISMARCK       SUNNY     -6 -17  59 NW31G46   30.27R WCI -34
DICKINSON      SUNNY     -7 -17  62 NW30G41   30.23R WCI -35
GARRISON         N/A    -11 -18  71 NW30G43   30.23R WCI -41
HETTINGER ARPT SUNNY      0 -11  59 NW22G33   30.26R WCI -23
JAMESTOWN      MIX PCPN  -4  -8  83 NW36G47   30.08R VSB 1/2 WCI -33
CARRINGTON     SNOW      -6 -11  77 NW35G41   30.11R VSB<1/4 WCI -35
HAZEN          CLOUDY    -8 -18  59 W23G30    30.31R WCI -33
MANDAN         FAIR      -8 -17  65 NW32G41   30.22R WCI -37
OAKES          HAZE      -6  -9  84 NW32G44   30.10R VSB 1/4 WCI -35
RUGBY          HAZE      -8 -13  77 NW31G39   30.12R VSB 1/2 WCI -37
STANLEY        FAIR     -11 -18  70 NW23G33   30.22R WCI -38
TIOGA          MIX PCPN -13 -20  70 NW26G36   30.26R WCI -42
$$

CITY           SKY/WX    TMP DP  RH WIND       PRES   REMARKS
GRAND FORKS    SNOW       2  -3  80 NW28G37   30.00R VSB 1/2 WCI -22
GRAND FORKS AF NOT AVBL
DEVILS LAKE    LGT SNOW  -3  -7  82 NW28      30.05R VSB 3/4 WCI -29
FARGO          LGT SNOW   3  -2  79 NW28G35   30.03R VSB 3/4 WCI -21
CANDO          LGT SNOW  -2  -4  92 NW24      30.09R VSB 3/4 WCI -27
CAVALIER       SNOW       1  -2  85 NW21G31   29.99R VSB 1/2 WCI -20
GRAFTON        LGT SNOW   3   0  85 NW22G30   30.01R VSB 3/4 WCI -19
GWINNER        HAZE      -2  -8  78 NW29G43   30.08R VSB 1/4 WCI -28
LANGDON        SNOW       0  -2  92 NW33G40   29.97R VSB<1/4 WCI -27
ROLLA          PTSUNNY   -4 -11  71 NW29G38   30.03R HAZE    WCI -31
WALHALLA       LGT SNOW   3   0  85 NW18G26   30.01R VSB 1   WCI -17
$$

CITY           SKY/WX    TMP DP  RH WIND       PRES   REMARKS
ABERDEEN       MIX PCPN  -3 -10  72 NW30G45   30.21R VSB 1   WCI -30
MOBRIDGE       MIX PCPN  -2 -13  59 NW25G40   30.23R WCI -27
RAPID CITY     SUNNY     22   8  55 NE6       30.25R WCI  14
GLASGOW        SUNNY    -10 -20  61 NW13      30.42R WCI -30
SIDNEY         SUNNY     -6 -16  61 NW17G25   30.41R WCI -28
WOLF POINT     SUNNY     -8 -18  61 W13       30.44R WCI -28
GLENDIVE       SUNNY     -3 -13  62 NW18      30.38R WCI -25
MILES CITY     SUNNY      0 -11  59 NW9       30.39S WCI -15
BAKER          SUNNY     -3 -12  65 W18       30.29S WCI -25
$$

CITY           SKY/WX    TMP DP  RH WIND       PRES   REMARKS
BILLINGS       PTSUNNY    5   0  79 VRB5      30.28R WCI  -4
GREAT FALLS    SUNNY     -3 -13  62 CALM      30.32R
$$



 

View Past Reports for Bismarck, ND.

Products Courtesy of NOAA-NWS
NWS Information Parsing Script by Ken True at Saratoga Weather - Script by SE Lincoln Weather.